When you browse on this site, cookies collect data to enhance your experience and personalize the content and advertising you see.
Visit our Privacy Policy to learn more. By continuing to use the site, you agree to this use of cookies and data.
  • în România
  • Lista ţărilor
  • Pe 7 zile
  • Temperatura apei
  • Hartă satelitară
  • Meteo pe hartă
  • Widget-uri
  • user-avatar
    Intrare

    Meteo pe oră la Maubeuge

    Astăzi, 23 Aprilie, Marţi

    Timp Temperatura Precipitaţii Vânt Presiune Umiditate
    00:00 +12°C° 0 mm 4 m/s 738 mmHg 68%
    01:00 +12°C° 0 mm 4 m/s 737 mmHg 68%
    02:00 +11°C° 0 mm 3 m/s 737 mmHg 69%
    03:00 +11°C° 0 mm 3 m/s 737 mmHg 69%
    04:00 +11°C° 0 mm 3 m/s 737 mmHg 72%
    05:00 +10°C° 0 mm 3 m/s 736 mmHg 74%
    06:00 +10°C° 0 mm 3 m/s 736 mmHg 77%
    07:00 +12°C° 0 mm 3 m/s 736 mmHg 73%
    08:00 +14°C° 0 mm 3 m/s 736 mmHg 70%
    09:00 +17°C° 0 mm 3 m/s 736 mmHg 67%
    10:00 +18°C° 0 mm 3 m/s 736 mmHg 63%
    11:00 +20°C° 0 mm 3 m/s 735 mmHg 60%
    12:00 +21°C° 0 mm 3 m/s 735 mmHg 56%
    13:00 +21°C° 0 mm 3 m/s 735 mmHg 56%
    14:00 +23°C° 0 mm 2 m/s 734 mmHg 56%
    15:00 +23°C° 0 mm 2 m/s 734 mmHg 56%
    16:00 +21°C° 0.1 mm 2 m/s 734 mmHg 63%
    17:00 +20°C° 0.1 mm 2 m/s 734 mmHg 70%
    18:00 +20°C° 0.1 mm 1 m/s 734 mmHg 77%
    19:00 +17°C° 0 mm 2 m/s 734 mmHg 81%
    20:00 +16°C° 0 mm 2 m/s 734 mmHg 85%
    21:00 +15°C° 0 mm 2 m/s 734 mmHg 90%
    22:00 +14°C° 0 mm 3 m/s 734 mmHg 91%
    23:00 +13°C° 0 mm 3 m/s 734 mmHg 92%

    Mâine, 24 Aprilie, Miercuri

    Timp Temperatura Precipitaţii Vânt Presiune Umiditate
    00:00 +13°C° 0 mm 3 m/s 734 mmHg 93%
    01:00 +13°C° 0 mm 4 m/s 734 mmHg 91%
    02:00 +13°C° 0 mm 4 m/s 734 mmHg 90%
    03:00 +13°C° 0 mm 5 m/s 734 mmHg 88%
    04:00 +13°C° 0 mm 5 m/s 734 mmHg 87%
    05:00 +13°C° 0 mm 6 m/s 735 mmHg 85%
    06:00 +13°C° 0 mm 6 m/s 735 mmHg 84%
    07:00 +14°C° 0 mm 7 m/s 735 mmHg 82%
    08:00 +15°C° 0 mm 7 m/s 736 mmHg 80%
    09:00 +16°C° 0 mm 7 m/s 737 mmHg 78%
    10:00 +16°C° 0.1 mm 7 m/s 737 mmHg 75%
    11:00 +16°C° 0.1 mm 7 m/s 737 mmHg 73%
    12:00 +16°C° 0.1 mm 7 m/s 738 mmHg 71%
    13:00 +15°C° 0.4 mm 6 m/s 738 mmHg 74%
    14:00 +15°C° 0.4 mm 6 m/s 738 mmHg 77%
    15:00 +14°C° 0.4 mm 5 m/s 738 mmHg 80%
    16:00 +13°C° 1.2 mm 5 m/s 739 mmHg 83%
    17:00 +12°C° 1.2 mm 5 m/s 739 mmHg 86%
    18:00 +10°C° 1.2 mm 5 m/s 739 mmHg 89%
    19:00 +9°C° 0.4 mm 5 m/s 739 mmHg 89%
    20:00 +9°C° 0.4 mm 5 m/s 740 mmHg 89%
    21:00 +8°C° 0.4 mm 5 m/s 740 mmHg 89%
    22:00 +8°C° 0 mm 5 m/s 740 mmHg 89%
    23:00 +8°C° 0 mm 5 m/s 740 mmHg 88%

    Poimâine, 25 Aprilie, Joi

    Timp Temperatura Precipitaţii Vânt Presiune Umiditate
    00:00 +8°C° 0 mm 5 m/s 740 mmHg 88%
    01:00 +8°C° 0 mm 6 m/s 740 mmHg 84%
    02:00 +8°C° 0 mm 7 m/s 739 mmHg 80%
    03:00 +8°C° 0 mm 7 m/s 739 mmHg 76%
    04:00 +9°C° 0 mm 8 m/s 739 mmHg 79%
    05:00 +8°C° 0 mm 9 m/s 739 mmHg 81%
    06:00 +8°C° 0 mm 10 m/s 739 mmHg 83%
    07:00 +9°C° 0.1 mm 10 m/s 740 mmHg 82%
    08:00 +9°C° 0.1 mm 10 m/s 740 mmHg 82%
    09:00 +11°C° 0.1 mm 10 m/s 740 mmHg 81%
    10:00 +12°C° 0.3 mm 10 m/s 741 mmHg 77%
    11:00 +12°C° 0.3 mm 9 m/s 742 mmHg 73%
    12:00 +13°C° 0.3 mm 8 m/s 742 mmHg 69%
    13:00 +12°C° 0.2 mm 7 m/s 742 mmHg 71%
    14:00 +13°C° 0.2 mm 6 m/s 742 mmHg 74%
    15:00 +12°C° 0.2 mm 5 m/s 743 mmHg 76%
    16:00 +10°C° 0.8 mm 5 m/s 743 mmHg 81%
    17:00 +9°C° 0.8 mm 5 m/s 743 mmHg 87%
    18:00 +8°C° 0.8 mm 4 m/s 744 mmHg 92%
    19:00 +8°C° 0.2 mm 5 m/s 744 mmHg 93%
    20:00 +7°C° 0.2 mm 5 m/s 745 mmHg 93%
    21:00 +7°C° 0.2 mm 5 m/s 746 mmHg 94%
    22:00 +7°C° 0 mm 5 m/s 746 mmHg 94%
    23:00 +7°C° 0 mm 5 m/s 746 mmHg 93%

    26 Aprilie, Vineri

    Timp Temperatura Precipitaţii Vânt Presiune Umiditate
    00:00 +6°C° 0 mm 5 m/s 746 mmHg 93%
    01:00 +6°C° 0 mm 5 m/s 746 mmHg 94%
    02:00 +6°C° 0 mm 5 m/s 746 mmHg 95%
    03:00 +5°C° 0 mm 5 m/s 746 mmHg 95%
    04:00 +6°C° 0 mm 5 m/s 746 mmHg 94%
    05:00 +6°C° 0 mm 4 m/s 746 mmHg 92%
    06:00 +6°C° 0 mm 4 m/s 746 mmHg 91%
    07:00 +8°C° 0 mm 5 m/s 746 mmHg 84%
    08:00 +9°C° 0 mm 6 m/s 747 mmHg 78%
    09:00 +11°C° 0 mm 6 m/s 747 mmHg 72%
    10:00 +13°C° 0.5 mm 6 m/s 747 mmHg 71%
    11:00 +13°C° 0.5 mm 6 m/s 747 mmHg 71%
    12:00 +14°C° 0.5 mm 6 m/s 747 mmHg 71%
    13:00 +14°C° 0.7 mm 6 m/s 747 mmHg 73%
    14:00 +13°C° 0.7 mm 6 m/s 746 mmHg 75%
    15:00 +13°C° 0.7 mm 6 m/s 746 mmHg 77%
    16:00 +13°C° 0.5 mm 5 m/s 746 mmHg 80%
    17:00 +12°C° 0.5 mm 5 m/s 747 mmHg 84%
    18:00 +10°C° 0.5 mm 5 m/s 747 mmHg 87%
    19:00 +9°C° 0.3 mm 5 m/s 747 mmHg 89%
    20:00 +9°C° 0.3 mm 5 m/s 748 mmHg 92%
    21:00 +8°C° 0.3 mm 6 m/s 748 mmHg 94%
    22:00 +7°C° 0 mm 6 m/s 749 mmHg 93%
    23:00 +7°C° 0 mm 6 m/s 750 mmHg 92%

    27 Aprilie, Sâmbătă

    Timp Temperatura Precipitaţii Vânt Presiune Umiditate
    00:00 +5°C° 0 mm 6 m/s 750 mmHg 91%
    01:00 +6°C° 0 mm 5 m/s 750 mmHg 91%
    02:00 +5°C° 0 mm 5 m/s 751 mmHg 91%
    03:00 +3°C° 0 mm 5 m/s 751 mmHg 90%
    04:00 +3°C° 0 mm 5 m/s 751 mmHg 90%
    05:00 +3°C° 0 mm 6 m/s 751 mmHg 90%
    06:00 +3°C° 0 mm 6 m/s 751 mmHg 90%
    07:00 +4°C° 0.2 mm 7 m/s 750 mmHg 89%
    08:00 +5°C° 0.2 mm 9 m/s 750 mmHg 88%
    09:00 +6°C° 0.2 mm 10 m/s 749 mmHg 88%
    10:00 +6°C° 0.8 mm 10 m/s 749 mmHg 84%
    11:00 +7°C° 0.8 mm 10 m/s 748 mmHg 81%
    12:00 +8°C° 0.8 mm 10 m/s 748 mmHg 77%
    13:00 +7°C° 0.1 mm 10 m/s 748 mmHg 75%
    14:00 +7°C° 0.1 mm 10 m/s 748 mmHg 73%
    15:00 +6°C° 0.1 mm 10 m/s 747 mmHg 71%
    16:00 +6°C° 0.3 mm 10 m/s 748 mmHg 74%
    17:00 +5°C° 0.3 mm 10 m/s 749 mmHg 77%
    18:00 +5°C° 0.3 mm 10 m/s 749 mmHg 80%
    19:00 +5°C° 0.1 mm 9 m/s 751 mmHg 82%
    20:00 +5°C° 0.1 mm 8 m/s 752 mmHg 83%
    21:00 +5°C° 0.1 mm 8 m/s 753 mmHg 85%
    22:00 +5°C° 0 mm 7 m/s 753 mmHg 85%
    23:00 +4°C° 0 mm 6 m/s 754 mmHg 85%

    28 Aprilie, Duminică

    Timp Temperatura Precipitaţii Vânt Presiune Umiditate
    00:00 +5°C° 0 mm 4 m/s 755 mmHg 85%
    01:00 +5°C° 0 mm 4 m/s 755 mmHg 84%
    02:00 +4°C° 0 mm 3 m/s 756 mmHg 83%
    03:00 +4°C° 0 mm 3 m/s 756 mmHg 82%
    04:00 +4°C° 0 mm 3 m/s 756 mmHg 81%
    05:00 +5°C° 0 mm 2 m/s 757 mmHg 81%
    06:00 +6°C° 0 mm 2 m/s 757 mmHg 81%
    07:00 +7°C° 0.1 mm 2 m/s 757 mmHg 81%
    08:00 +8°C° 0.1 mm 3 m/s 757 mmHg 81%
    09:00 +8°C° 0.1 mm 3 m/s 757 mmHg 81%
    10:00 +9°C° 0.4 mm 3 m/s 757 mmHg 82%
    11:00 +9°C° 0.4 mm 3 m/s 757 mmHg 83%
    12:00 +9°C° 0.4 mm 3 m/s 757 mmHg 84%
    13:00 +8°C° 0.6 mm 4 m/s 757 mmHg 86%
    14:00 +8°C° 0.6 mm 4 m/s 756 mmHg 88%
    15:00 +7°C° 0.6 mm 4 m/s 756 mmHg 90%
    16:00 +7°C° 0.4 mm 4 m/s 756 mmHg 91%
    17:00 +7°C° 0.4 mm 4 m/s 755 mmHg 92%
    18:00 +6°C° 0.4 mm 4 m/s 755 mmHg 94%
    19:00 +6°C° 0.2 mm 4 m/s 755 mmHg 94%
    20:00 +6°C° 0.2 mm 4 m/s 755 mmHg 95%
    21:00 +6°C° 0.2 mm 4 m/s 755 mmHg 95%
    22:00 +6°C° 0 mm 4 m/s 755 mmHg 96%
    23:00 +6°C° 0 mm 4 m/s 755 mmHg 96%
    Arată mai mult